STARLINK-30862, 59032

Orbit data source: Space-Track

STARLINK-30862, 59032 is a payload satellite owned by SpaceX/Seattle (US) in LEO that was launched on Sun, 25 Feb 2024 UTC via an FALCON 9 launch vehicle from the Air Force Eastern Test Range (AFETR). Payload-class satellites include a variety of spacecraft equipped with specific instruments for various scientific and technological missions. These include communications satellites like Starlink; space stations such as the ISS; scientific satellites like the Hubble; Earth observation satellites from companies like Planet Labs, Umbra, and HawkEye 360; GPS; miniature CubeSats for education and research; and military/defense satellites.

Loading next visibility...
Identifier
59032, 2024-038K
Orbit
LEO
Country
Flag of USUS
Related business
Manufacturer
SpaceX/Seattle
Mission
Operational Commercial Communications
Bus & Motor
STARLINK V2M, Unknown motor
Mass
730 kg wet, ~700 kg dry
Launch date (UTC)
2024-02-25 (2 years ago)
Launch vehicle
FALCON 9
Launch site
Air Force Eastern Test Range (AFETR)
Object type
Payload
Rocket body
Debris
Shape & HBR
Box + 2 Pan, 17.7 m
Radar Cross Section
33.884 m², Large (>1 m²)

Expand to show TLE details & history
Last TLE update: 1 day ago

TLE from 1 day ago
0 STARLINK-30862
1 59032U 24038K   25348.68470256 -.00003573  00000-0 -12035-3 0  9990
2 59032  43.0021 136.2351 0002118 283.7813  76.2803 15.27581037101777
Epoch: 2025-12-14T16:25Z
TLE epoch observation values (Epoch: 2025-12-14T16:25:58.301Z)
Latitude
Longitude
166.1481°
Altitude
482.477 km
Speed
7.626 km/s
True Right ascension
09h 04m 56s
True Declination
0° 00' 00"
Sunlit
Object was in full shadow at epoch
Visualization orbit readout
Latitude
Unknown
Longitude
Unknown
Altitude
Unknown
Speed
Unknown
Apparent Right ascension
Unknown
Apparent Declination
Unknown
Sunlit
N/A
Visualization observer readout
Local Sidereal Time
15:11:34
Azimuth
Unknown
Elevation
Unknown
Doppler factor
Unknown
Orbital elements
Apogee altitude
486.444 km
Perigee altitude
483.537 km
Semi-major axis
6,863.128 km
Eccentricity
0.00021
Inclination
43.0021°
RAAN
136.2351°
Arg. of periapsis
283.7813°
True anomaly
76.30388°
Mean anomaly
76.2803°
Eccentric anomaly
76.29209°
Mean motion
3.81733 °/min
Orbital period
94.31 mins
BSTAR
-0.00012035
Loading maneuver chart data...
Computing Atmospheric mass density...
Loading historical data...
Loading historical data...
Loading historical data...
Loading historical data...
Loading historical data...
Loading historical data...
Loading historical data...

Documentation

Showing up to 5 results
|